Weather Roundup
Issued by NWS Springfield, MO

Home | Current Version | Previous Version | Text Only | Print | Product List | Glossary On
Versions: 1 2 3 4 5 6 7 8 9 10 11 12 13 14 15 16 17 18 19 20 21 22 23 24 25 26 27 28 29 30 31 32 33 34 35 36 37 38 39 40 41 42 43 44 45 46 47 48 49 50
000
NZUS99 KSGF 221507
HRRSGF

HOURLY WEATHER
NATIONAL WEATHER SERVICE SPRINGFIELD MO
1000 AM CDT TUE JUL 22 2014

......SGF CWA......

CITY           SKY/WX    TMP DP  RH WIND       PRES   REMARKS
SPRINGFIELD    SUNNY     80  71  74 SW10      30.11F
JOPLIN         SUNNY     83  71  67 SW9       30.11F
WEST PLAINS    SUNNY     78  68  71 SW5       30.13F
ROLLA          SUNNY     80  69  69 SW9       30.09S
OSAGE BEACH    SUNNY     82  70  65 SW7       30.08S
BRANSON        SUNNY     86  70  58 CALM      30.14S HX  90

......SURROUNDING SGF CWA......

CITY           SKY/WX    TMP DP  RH WIND       PRES   REMARKS
CHANUTE        SUNNY     83  73  72 SW16      30.08F
PARSONS        SUNNY     83  73  72 S9        30.09F
COFFEYVILLE    SUNNY     83  73  72 SW13      30.08F
EMPORIA        SUNNY     87  74  64 SW10      30.05F HX  95
GROVE OK       SUNNY     82  72  69 SW5       30.12F
ROGERS AR      SUNNY     81  70  69 SW5       30.15S
SILOAM SPRINGS SUNNY     81  68  65 W9        30.15S
HARRISON AR    SUNNY     81  69  67 VRB3      30.13F
NEAR YELLVILLE SUNNY     79  66  65 SW3       30.11F

......KANSAS AND MISSOURI......

CITY           SKY/WX    TMP DP  RH WIND       PRES   REMARKS
KANSAS CTY INT MOSUNNY   82  76  81 SW13      30.03S
DOWNTOWN KC    SUNNY     85  75  72 W10       30.02F HX  93
COLUMBIA       SUNNY     82  73  74 SW10      30.08R
SEDALIA        SUNNY     83  73  72 SW13      30.06F
ST JOSEPH      SUNNY     85  77  77 SW9       30.01S HX  95
ST LOUIS       MOSUNNY   83  67  58 SW7       30.09R
SPIRIT OF STL  SUNNY     81  67  62 W8        30.06F
KIRKSVILLE     MOSUNNY   77  72  84 SW5       30.03R
WICHITA        MOSUNNY   85  74  69 S12       30.07F HX  92
TOPEKA         SUNNY     85  76  74 W8        30.04R HX  94
OLATHE         SUNNY     82  75  79 SW10      30.04S

......TENNESSEE......

CITY           SKY/WX    TMP DP  RH WIND       PRES   REMARKS
MEMPHIS        SUNNY     84  68  58 VRB3      30.09S
NASHVILLE      PTSUNNY   84  72  67 S9        30.12F

......ARKANSAS.......

CITY           SKY/WX    TMP DP  RH WIND       PRES   REMARKS
FAYETTEVILLE   SUNNY     80  70  71 CALM      30.14S
FT SMITH       SUNNY     80  70  71 CALM      30.10S
LITTLE ROCK    MOSUNNY   82  67  60 CALM      30.10S

......OKLAHOMA.......

CITY           SKY/WX    TMP DP  RH WIND       PRES   REMARKS
TULSA          PTSUNNY   81  72  74 SW9       30.09F
PONCA CITY     SUNNY     82  73  74 MISG      30.09S
MCALESTER      SUNNY     81  70  69 VRB7      30.12S
OKLAHOMA CITY  PTSUNNY   83  73  72 S9        30.12R

......IOWA............

CITY           SKY/WX    TMP DP  RH WIND       PRES   REMARKS
DES MOINES     PTSUNNY   86  76  71 W6        29.95R HX  96
QUAD CITIES    CLOUDY    79  70  74 SW9       29.97S

......ILLINOIS........

CITY           SKY/WX    TMP DP  RH WIND       PRES   REMARKS
QUINCY         PTSUNNY   75  69  81 CALM      30.07R
CHICAGO        MOSUNNY   81  64  56 SW12G21   30.00S



USA.gov is the U.S. government's official web portal to all federal, state and local government web resources and services.